| time (UTC) | temp F | wind direction | speed knots | gust knots | rain 1hr in | rain 24hr in | rain mn in | humidity % | barometer mb |
| 20260509031029 | 57 | 107 | 0.0 | 1.7 | 0.00 | 0.00 | 0.00 | 56 | 1014.4 |
| 20260509030528 | 57 | 128 | 0.0 | 1.7 | 0.00 | 0.00 | 0.00 | 56 | 1014.3 |
| 20260509030027 | 57 | 192 | 0.0 | 0.9 | 0.00 | 0.00 | 0.00 | 55 | 1014.2 |
| 20260509025526 | 57 | 192 | 0.0 | 0.9 | 0.00 | 0.00 | 0.00 | 56 | 1014.3 |
| 20260509025024 | 57 | 192 | 0.0 | 7.8 | 0.00 | 0.00 | 0.00 | 56 | 1014.4 |
| 20260509024522 | 57 | 153 | 0.0 | 7.8 | 0.00 | 0.00 | 0.00 | 56 | 1014.3 |
| 20260509024021 | 57 | 111 | 0.0 | 1.7 | 0.00 | 0.00 | 0.00 | 56 | 1014.5 |
| 20260509023519 | 57 | 111 | 0.0 | 1.7 | 0.00 | 0.00 | 0.00 | 56 | 1014.5 |
| 20260509023018 | 57 | 296 | 0.0 | 0.0 | 0.00 | 0.00 | 0.00 | 56 | 1014.4 |
| 20260509022517 | 57 | 296 | 0.0 | 0.0 | 0.00 | 0.00 | 0.00 | 56 | 1014.4 |
| 20260509022015 | 57 | 296 | 0.0 | 0.0 | 0.00 | 0.00 | 0.00 | 56 | 1014.4 |
| 20260509021514 | 57 | 292 | 0.0 | 0.0 | 0.00 | 0.00 | 0.00 | 56 | 1014.4 |
| 20260509021016 | 58 | 292 | 0.0 | 0.0 | 0.00 | 0.00 | 0.00 | 56 | 1014.4 |
| 20260509020510 | 58 | 292 | 0.0 | 0.0 | 0.00 | 0.00 | 0.00 | 56 | 1014.5 |
| 20260509020012 | 58 | 292 | 0.0 | 0.0 | 0.00 | 0.00 | 0.00 | 56 | 1014.5 |
| 20260509015508 | 58 | 292 | 0.0 | 0.0 | 0.00 | 0.00 | 0.00 | 55 | 1014.4 |
| 20260509015006 | 58 | 292 | 0.0 | 0.0 | 0.00 | 0.00 | 0.00 | 55 | 1014.1 |
| 20260509014511 | 59 | 292 | 0.0 | 0.0 | 0.00 | 0.00 | 0.00 | 55 | 1014.4 |
| 20260509014003 | 59 | 292 | 0.0 | 0.0 | 0.00 | 0.00 | 0.00 | 54 | 1014.2 |
| 20260509013502 | 59 | 292 | 0.0 | 0.0 | 0.00 | 0.00 | 0.00 | 54 | 1014.2 |
| 20260509013113 | 59 | 292 | 0.0 | 0.0 | 0.00 | 0.00 | 0.00 | 54 | 1014.2 |
| 20260509012559 | 60 | 292 | 0.0 | 0.0 | 0.00 | 0.00 | 0.00 | 55 | 1014.1 |
| 20260509012058 | 60 | 292 | 0.0 | 0.0 | 0.00 | 0.00 | 0.00 | 54 | 1014.2 |
| 20260509011557 | 60 | 292 | 0.0 | 0.0 | 0.00 | 0.00 | 0.00 | 54 | 1014.0 |
| 20260509011057 | 61 | 292 | 0.0 | 0.0 | 0.00 | 0.00 | 0.00 | 53 | 1014.1 |
| 20260509010556 | 61 | 292 | 0.0 | 0.0 | 0.00 | 0.00 | 0.00 | 53 | 1014.1 |
| 20260509010052 | 62 | 292 | 0.0 | 0.0 | 0.00 | 0.00 | 0.00 | 51 | 1014.1 |
| 20260509005551 | 62 | 292 | 0.0 | 0.0 | 0.00 | 0.00 | 0.00 | 51 | 1013.9 |
| 20260509005049 | 62 | 292 | 0.0 | 0.0 | 0.00 | 0.00 | 0.00 | 51 | 1014.0 |
| 20260509004548 | 63 | 292 | 0.0 | 0.0 | 0.00 | 0.00 | 0.00 | 49 | 1014.1 |
| 20260509004046 | 63 | 292 | 0.0 | 0.0 | 0.00 | 0.00 | 0.00 | 48 | 1014.1 |
| 20260509003545 | 63 | 292 | 0.0 | 0.0 | 0.00 | 0.00 | 0.00 | 50 | 1014.1 |
| 20260509003045 | 64 | 292 | 0.0 | 0.0 | 0.00 | 0.00 | 0.00 | 49 | 1014.1 |
| 20260509002542 | 64 | 292 | 0.0 | 0.0 | 0.00 | 0.00 | 0.00 | 48 | 1014.0 |
| 20260509002040 | 65 | 292 | 0.0 | 0.0 | 0.00 | 0.00 | 0.00 | 46 | 1013.9 |
| 20260509001539 | 65 | 292 | 0.0 | 0.0 | 0.00 | 0.00 | 0.00 | 46 | 1014.0 |
| 20260509001038 | 65 | 292 | 0.0 | 0.0 | 0.00 | 0.00 | 0.00 | 45 | 1013.9 |
| 20260509000539 | 65 | 292 | 0.0 | 1.7 | 0.00 | 0.00 | 0.00 | 45 | 1013.9 |
| 20260509000035 | 66 | 292 | 0.0 | 1.7 | 0.00 | 0.00 | 0.00 | 42 | 1013.9 |
| 20260508235534 | 66 | 321 | 0.0 | 0.0 | 0.00 | 0.00 | 0.00 | 41 | 1013.7 |
| 20260508235033 | 66 | 323 | 0.0 | 0.0 | 0.00 | 0.00 | 0.00 | 43 | 1013.7 |
| 20260508234534 | 66 | 323 | 0.0 | 2.6 | 0.00 | 0.00 | 0.00 | 43 | 1013.7 |
| 20260508234028 | 67 | 323 | 0.0 | 2.6 | 0.00 | 0.00 | 0.00 | 43 | 1013.7 |
| 20260508233527 | 67 | 160 | 0.0 | 5.2 | 0.00 | 0.00 | 0.00 | 43 | 1013.7 |
| 20260508233033 | 67 | 160 | 0.9 | 5.2 | 0.00 | 0.00 | 0.00 | 40 | 1013.6 |
| 20260508232524 | 67 | 126 | 0.0 | 2.6 | 0.00 | 0.00 | 0.00 | 40 | 1013.5 |
| 20260508232023 | 67 | 123 | 0.9 | 4.3 | 0.00 | 0.00 | 0.00 | 39 | 1013.5 |
| 20260508231524 | 67 | 144 | 0.0 | 4.3 | 0.00 | 0.00 | 0.00 | 39 | 1013.4 |
| 20260508231021 | 67 | 153 | 0.0 | 0.0 | 0.00 | 0.00 | 0.00 | 39 | 1013.3 |
| 20260508230518 | 68 | 153 | 0.0 | 0.0 | 0.00 | 0.00 | 0.00 | 39 | 1013.4 |
| 20260508230017 | 68 | 153 | 0.0 | 2.6 | 0.00 | 0.00 | 0.00 | 38 | 1013.3 |
| 20260508225516 | 68 | 153 | 0.0 | 2.6 | 0.00 | 0.00 | 0.00 | 38 | 1013.4 |
| 20260508225015 | 68 | 153 | 0.9 | 4.3 | 0.00 | 0.00 | 0.00 | 38 | 1013.4 |
| 20260508224513 | 68 | 135 | 0.0 | 6.1 | 0.00 | 0.00 | 0.00 | 37 | 1013.3 |
| 20260508224011 | 68 | 198 | 0.9 | 6.1 | 0.00 | 0.00 | 0.00 | 38 | 1013.3 |
| 20260508223514 | 68 | 146 | 0.0 | 0.0 | 0.00 | 0.00 | 0.00 | 39 | 1013.3 |
| 20260508223016 | 68 | 145 | 0.0 | 0.9 | 0.00 | 0.00 | 0.00 | 38 | 1013.4 |
| 20260508222508 | 68 | 145 | 0.0 | 2.6 | 0.00 | 0.00 | 0.00 | 38 | 1013.3 |
| 20260508222010 | 68 | 146 | 0.9 | 2.6 | 0.00 | 0.00 | 0.00 | 35 | 1013.4 |
| 20260508221504 | 68 | 122 | 0.0 | 2.6 | 0.00 | 0.00 | 0.00 | 35 | 1013.4 |
| 20260508221005 | 69 | 237 | 0.9 | 2.6 | 0.00 | 0.00 | 0.00 | 37 | 1013.6 |
| 20260508220502 | 69 | 244 | 0.9 | 1.7 | 0.00 | 0.00 | 0.00 | 36 | 1013.6 |
| 20260508220105 | 69 | 244 | 0.0 | 2.6 | 0.00 | 0.00 | 0.00 | 38 | 1013.6 |
| 20260508215559 | 69 | 244 | 0.0 | 2.6 | 0.00 | 0.00 | 0.00 | 37 | 1013.6 |
| 20260508215057 | 69 | 169 | 0.0 | 3.5 | 0.00 | 0.00 | 0.00 | 35 | 1013.7 |
| 20260508214556 | 69 | 202 | 1.7 | 3.5 | 0.00 | 0.00 | 0.00 | 34 | 1013.5 |
| 20260508214054 | 69 | 159 | 0.0 | 3.5 | 0.00 | 0.00 | 0.00 | 34 | 1013.6 |
| 20260508213552 | 69 | 178 | 0.9 | 3.5 | 0.00 | 0.00 | 0.00 | 36 | 1013.6 |
| 20260508213051 | 69 | 333 | 0.0 | 3.5 | 0.00 | 0.00 | 0.00 | 36 | 1013.6 |
| 20260508212550 | 69 | 121 | 0.0 | 5.2 | 0.00 | 0.00 | 0.00 | 35 | 1013.6 |
| 20260508212049 | 69 | 136 | 0.0 | 3.5 | 0.00 | 0.00 | 0.00 | 35 | 1013.6 |
| 20260508211547 | 70 | 143 | 0.9 | 4.3 | 0.00 | 0.00 | 0.00 | 34 | 1013.6 |
| 20260508211045 | 70 | 200 | 1.7 | 4.3 | 0.00 | 0.00 | 0.00 | 34 | 1013.5 |
| 20260508210544 | 70 | 236 | 0.0 | 4.3 | 0.00 | 0.00 | 0.00 | 32 | 1013.5 |
| 20260508210043 | 70 | 257 | 1.7 | 4.3 | 0.00 | 0.00 | 0.00 | 33 | 1013.5 |
| 20260508205540 | 71 | 82 | 0.9 | 4.3 | 0.00 | 0.07 | 0.00 | 36 | 1013.6 |
| 20260508205041 | 71 | 49 | 0.9 | 6.1 | 0.00 | 0.07 | 0.00 | 31 | 1013.7 |
| 20260508204547 | 71 | 185 | 1.7 | 6.1 | 0.00 | 0.07 | 0.00 | 31 | 1013.7 |
| 20260508204036 | 72 | 139 | 0.9 | 3.5 | 0.00 | 0.07 | 0.00 | 32 | 1013.7 |
| 20260508203535 | 72 | 232 | 0.9 | 2.6 | 0.00 | 0.07 | 0.00 | 32 | 1013.9 |
| 20260508203041 | 73 | 231 | 0.0 | 2.6 | 0.00 | 0.07 | 0.00 | 32 | 1013.9 |
| 20260508202532 | 73 | 198 | 0.0 | 0.0 | 0.00 | 0.07 | 0.00 | 31 | 1013.9 |
| 20260508202030 | 74 | 230 | 0.0 | 1.7 | 0.00 | 0.07 | 0.00 | 30 | 1013.9 |
| 20260508201529 | 74 | 230 | 0.0 | 2.6 | 0.00 | 0.07 | 0.00 | 30 | 1013.9 |
| 20260508201028 | 75 | 230 | 0.0 | 3.5 | 0.00 | 0.07 | 0.00 | 29 | 1013.9 |
| 20260508200526 | 75 | 130 | 0.9 | 3.5 | 0.00 | 0.07 | 0.00 | 28 | 1014.0 |
| 20260508200028 | 76 | 167 | 1.7 | 3.5 | 0.00 | 0.07 | 0.00 | 29 | 1014.0 |
| 20260508195525 | 75 | 221 | 0.0 | 3.5 | 0.00 | 0.11 | 0.00 | 30 | 1014.0 |
| 20260508195025 | 75 | 191 | 0.0 | 2.6 | 0.00 | 0.11 | 0.00 | 30 | 1014.0 |
| 20260508194520 | 75 | 240 | 0.0 | 2.6 | 0.00 | 0.11 | 0.00 | 30 | 1014.1 |
| 20260508194019 | 75 | 240 | 0.0 | 6.1 | 0.00 | 0.11 | 0.00 | 30 | 1014.2 |
| 20260508193517 | 75 | 243 | 1.7 | 6.1 | 0.00 | 0.11 | 0.00 | 29 | 1014.1 |
| 20260508193016 | 75 | 163 | 0.9 | 6.1 | 0.00 | 0.11 | 0.00 | 28 | 1014.3 |
| 20260508192514 | 75 | 205 | 0.9 | 2.6 | 0.00 | 0.11 | 0.00 | 29 | 1014.5 |
| 20260508192013 | 75 | 200 | 0.0 | 3.5 | 0.00 | 0.11 | 0.00 | 31 | 1014.7 |
| 20260508191514 | 75 | 70 | 0.9 | 3.5 | 0.00 | 0.11 | 0.00 | 30 | 1014.8 |
| 20260508191010 | 75 | 239 | 0.9 | 4.3 | 0.00 | 0.11 | 0.00 | 32 | 1015.1 |
| 20260508190508 | 75 | 221 | 0.0 | 4.3 | 0.00 | 0.11 | 0.00 | 31 | 1015.0 |
| 20260508190007 | 75 | 328 | 0.9 | 2.6 | 0.00 | 0.11 | 0.00 | 31 | 1015.2 |
| 20260508185505 | 75 | 142 | 0.9 | 3.5 | 0.00 | 0.11 | 0.00 | 32 | 1015.5 |
| 20260508185004 | 74 | 145 | 0.0 | 5.2 | 0.00 | 0.11 | 0.00 | 32 | 1015.4 |
| 20260508184506 | 74 | 179 | 1.7 | 5.2 | 0.00 | 0.11 | 0.00 | 28 | 1015.4 |
| 20260508184100 | 75 | 223 | 2.6 | 4.3 | 0.00 | 0.11 | 0.00 | 29 | 1015.4 |
| 20260508183559 | 76 | 158 | 0.0 | 0.0 | 0.00 | 0.11 | 0.00 | 31 | 1015.5 |
| 20260508183103 | 75 | 239 | 0.0 | 2.6 | 0.00 | 0.11 | 0.00 | 33 | 1015.4 |
| 20260508182556 | 75 | 239 | 0.9 | 2.6 | 0.00 | 0.11 | 0.00 | 30 | 1015.5 |
| 20260508182055 | 75 | 169 | 0.9 | 3.5 | 0.00 | 0.11 | 0.00 | 32 | 1015.6 |
| 20260508181556 | 74 | 183 | 0.9 | 6.1 | 0.00 | 0.11 | 0.00 | 32 | 1015.5 |
| 20260508181055 | 74 | 113 | 0.0 | 6.1 | 0.00 | 0.11 | 0.00 | 32 | 1015.6 |
| 20260508180551 | 74 | 224 | 0.9 | 7.0 | 0.00 | 0.11 | 0.00 | 32 | 1015.9 |
| 20260508180049 | 74 | 160 | 1.7 | 7.0 | 0.00 | 0.11 | 0.00 | 31 | 1016.0 |
| 20260508175547 | 75 | 178 | 0.9 | 3.5 | 0.00 | 0.11 | 0.00 | 31 | 1016.0 |
| 20260508175046 | 75 | 181 | 0.9 | 3.5 | 0.00 | 0.11 | 0.00 | 33 | 1016.2 |
| 20260508174553 | 74 | 162 | 0.9 | 3.5 | 0.00 | 0.11 | 0.00 | 33 | 1016.0 |
| 20260508174042 | 74 | 209 | 0.9 | 4.3 | 0.00 | 0.11 | 0.00 | 33 | 1016.1 |
| 20260508173541 | 74 | 141 | 0.0 | 4.3 | 0.00 | 0.11 | 0.00 | 32 | 1016.2 |
| 20260508173040 | 73 | 150 | 0.9 | 4.3 | 0.00 | 0.11 | 0.00 | 29 | 1016.3 |
| 20260508172538 | 73 | 179 | 1.7 | 4.3 | 0.00 | 0.11 | 0.00 | 31 | 1016.4 |
| 20260508172038 | 74 | 152 | 1.7 | 4.3 | 0.00 | 0.11 | 0.00 | 27 | 1016.4 |
| 20260508171537 | 74 | 207 | 0.0 | 2.6 | 0.00 | 0.11 | 0.00 | 32 | 1016.5 |
| 20260508171034 | 74 | 207 | 0.0 | 0.0 | 0.00 | 0.11 | 0.00 | 33 | 1016.6 |
| 20260508170532 | 73 | 209 | 0.0 | 0.0 | 0.00 | 0.11 | 0.00 | 35 | 1016.7 |
| 20260508170035 | 73 | 209 | 0.0 | 0.0 | 0.00 | 0.11 | 0.00 | 29 | 1016.7 |
| 20260508165529 | 73 | 210 | 0.0 | 0.0 | 0.00 | 0.11 | 0.00 | 32 | 1016.8 |
| 20260508165028 | 73 | 210 | 0.0 | 2.6 | 0.00 | 0.11 | 0.00 | 35 | 1016.9 |
| 20260508164527 | 73 | 199 | 0.0 | 2.6 | 0.00 | 0.11 | 0.00 | 33 | 1017.0 |
| 20260508164025 | 73 | 199 | 0.0 | 1.7 | 0.00 | 0.11 | 0.00 | 33 | 1017.1 |
| 20260508163524 | 72 | 146 | 0.0 | 1.7 | 0.00 | 0.11 | 0.00 | 35 | 1017.1 |
| 20260508163022 | 72 | 146 | 0.0 | 1.7 | 0.00 | 0.11 | 0.00 | 34 | 1017.2 |
| 20260508162520 | 71 | 138 | 0.0 | 1.7 | 0.00 | 0.11 | 0.00 | 33 | 1017.2 |
| 20260508162020 | 71 | 140 | 0.0 | 5.2 | 0.00 | 0.11 | 0.00 | 36 | 1017.3 |
| 20260508161519 | 70 | 139 | 0.0 | 5.2 | 0.00 | 0.11 | 0.00 | 31 | 1017.5 |
| 20260508161018 | 70 | 188 | 0.0 | 2.6 | 0.00 | 0.11 | 0.00 | 35 | 1017.5 |
| 20260508160515 | 70 | 235 | 0.0 | 0.0 | 0.00 | 0.11 | 0.00 | 36 | 1017.6 |
| 20260508160016 | 70 | 220 | 0.0 | 0.0 | 0.00 | 0.11 | 0.00 | 37 | 1017.7 |
| 20260508155515 | 69 | 219 | 0.0 | 0.0 | 0.00 | 0.11 | 0.00 | 38 | 1017.6 |
| 20260508155011 | 69 | 219 | 0.0 | 1.7 | 0.00 | 0.11 | 0.00 | 37 | 1017.6 |
| 20260508154510 | 69 | 190 | 0.0 | 2.6 | 0.00 | 0.11 | 0.00 | 37 | 1017.6 |
| 20260508154007 | 69 | 192 | 0.9 | 2.6 | 0.00 | 0.11 | 0.00 | 38 | 1017.7 |
| 20260508153506 | 69 | 53 | 0.0 | 0.0 | 0.00 | 0.11 | 0.00 | 43 | 1017.7 |
| 20260508153004 | 68 | 54 | 0.0 | 0.0 | 0.00 | 0.11 | 0.00 | 45 | 1017.7 |
| 20260508152503 | 67 | 49 | 0.0 | 0.0 | 0.00 | 0.11 | 0.00 | 43 | 1017.7 |
| 20260508152000 | 67 | 55 | 0.0 | 0.0 | 0.00 | 0.11 | 0.00 | 44 | 1017.9 |
| 20260508151604 | 66 | 43 | 0.0 | 0.0 | 0.00 | 0.11 | 0.00 | 41 | 1017.9 |
| 20260508151059 | 66 | 43 | 0.0 | 0.0 | 0.00 | 0.11 | 0.00 | 41 | 1017.9 |
| 20260508150556 | 66 | 44 | 0.0 | 0.0 | 0.00 | 0.11 | 0.00 | 41 | 1018.0 |
| 20260508150054 | 66 | 44 | 0.0 | 0.9 | 0.00 | 0.11 | 0.00 | 45 | 1017.9 |
| 20260508145556 | 65 | 44 | 0.0 | 1.7 | 0.00 | 0.11 | 0.00 | 46 | 1018.1 |
| 20260508145055 | 65 | 44 | 0.0 | 1.7 | 0.00 | 0.11 | 0.00 | 44 | 1017.9 |
| 20260508144552 | 64 | 44 | 0.0 | 2.6 | 0.00 | 0.11 | 0.00 | 42 | 1017.9 |
| 20260508144048 | 64 | 44 | 0.0 | 0.0 | 0.00 | 0.11 | 0.00 | 32 | 1017.8 |
| 20260508143548 | 63 | 40 | 0.0 | 1.7 | 0.00 | 0.11 | 0.00 | 37 | 1017.9 |
| 20260508143055 | 62 | 37 | 0.0 | 1.7 | 0.00 | 0.11 | 0.00 | 25 | 1017.9 |
| 20260508142544 | 61 | 5 | 0.0 | 0.9 | 0.00 | 0.11 | 0.00 | 35 | 1017.9 |
| 20260508142043 | 61 | 350 | 0.0 | 1.7 | 0.00 | 0.11 | 0.00 | 21 | 1017.8 |
| 20260508141541 | 60 | 348 | 0.0 | 1.7 | 0.00 | 0.11 | 0.00 | 2 | 1017.7 |
| 20260508141040 | 59 | 108 | 0.0 | 0.0 | 0.00 | 0.11 | 0.00 | 1 | 1017.7 |
| 20260508140538 | 59 | 108 | 0.0 | 0.0 | 0.00 | 0.11 | 0.00 | 1 | 1017.7 |
| 20260508140040 | 58 | 108 | 0.0 | 2.6 | 0.00 | 0.11 | 0.00 | 1 | 1017.8 |
| 20260508135538 | 57 | 108 | 0.0 | 2.6 | 0.00 | 0.11 | 0.00 | 1 | 1017.7 |
| 20260508135035 | 56 | 107 | 0.0 | 1.7 | 0.00 | 0.11 | 0.00 | 1 | 1017.8 |
| 20260508134533 | 56 | 107 | 0.0 | 1.7 | 0.00 | 0.11 | 0.00 | 1 | 1017.9 |
| 20260508134030 | 55 | 102 | 0.0 | 0.9 | 0.00 | 0.11 | 0.00 | 1 | 1018.1 |
| 20260508133529 | 55 | 102 | 0.0 | 1.7 | 0.00 | 0.11 | 0.00 | 1 | 1018.0 |
| 20260508133028 | 54 | 121 | 0.9 | 1.7 | 0.00 | 0.11 | 0.00 | 1 | 1017.9 |
| 20260508132529 | 54 | 119 | 0.0 | 1.7 | 0.00 | 0.11 | 0.00 | 1 | 1017.9 |
| 20260508132027 | 53 | 96 | 0.0 | 1.7 | 0.00 | 0.11 | 0.00 | 1 | 1018.0 |
| 20260508131523 | 53 | 113 | 0.0 | 2.6 | 0.00 | 0.11 | 0.00 | 1 | 1018.0 |
| 20260508131022 | 52 | 79 | 0.9 | 2.6 | 0.00 | 0.11 | 0.00 | 1 | 1017.9 |
| 20260508130519 | 52 | 98 | 0.9 | 2.6 | 0.00 | 0.11 | 0.00 | 1 | 1018.1 |
| 20260508130025 | 51 | 111 | 0.0 | 2.6 | 0.00 | 0.11 | 0.00 | 1 | 1017.9 |
| 20260508125517 | 52 | 111 | 0.0 | 1.7 | 0.00 | 0.11 | 0.00 | 1 | 1018.0 |
| 20260508125016 | 52 | 93 | 0.0 | 0.9 | 0.00 | 0.11 | 0.00 | 1 | 1017.9 |
| 20260508124529 | 52 | 90 | 0.0 | 0.9 | 0.00 | 0.11 | 0.00 | 1 | 1017.7 |
| 20260508124012 | 52 | 107 | 0.0 | 0.0 | 0.00 | 0.11 | 0.00 | 1 | 1017.8 |
| 20260508123511 | 51 | 107 | 0.0 | 0.0 | 0.00 | 0.11 | 0.00 | 1 | 1017.7 |
| 20260508123019 | 50 | 107 | 0.0 | 0.0 | 0.00 | 0.11 | 0.00 | 1 | 1017.6 |
| 20260508122508 | 50 | 107 | 0.0 | 0.0 | 0.00 | 0.11 | 0.00 | 1 | 1017.6 |
| 20260508122006 | 49 | 107 | 0.0 | 0.0 | 0.00 | 0.11 | 0.00 | 1 | 1017.6 |
| 20260508121505 | 49 | 107 | 0.0 | 0.0 | 0.00 | 0.11 | 0.00 | 1 | 1017.5 |
| 20260508121003 | 48 | 107 | 0.0 | 0.0 | 0.00 | 0.11 | 0.00 | 1 | 1017.4 |
| 20260508120502 | 48 | 107 | 0.0 | 0.9 | 0.00 | 0.11 | 0.00 | 1 | 1017.3 |
| 20260508120002 | 48 | 107 | 0.0 | 0.9 | 0.00 | 0.11 | 0.00 | 1 | 1017.2 |
| 20260508115602 | 47 | 100 | 0.0 | 0.9 | 0.00 | 0.11 | 0.00 | 1 | 1017.1 |
| 20260508115101 | 47 | 101 | 0.0 | 0.9 | 0.00 | 0.11 | 0.00 | 1 | 1017.1 |
| 20260508114557 | 47 | 103 | 0.0 | 0.9 | 0.00 | 0.11 | 0.00 | 1 | 1017.0 |
| 20260508114055 | 47 | 107 | 0.0 | 0.9 | 0.00 | 0.11 | 0.00 | 1 | 1016.9 |
| 20260508113553 | 46 | 91 | 0.0 | 0.9 | 0.00 | 0.11 | 0.00 | 1 | 1016.9 |
| 20260508113051 | 46 | 94 | 0.0 | 0.9 | 0.00 | 0.11 | 0.00 | 1 | 1016.7 |
| 20260508112550 | 46 | 101 | 0.0 | 0.9 | 0.00 | 0.11 | 0.00 | 1 | 1016.7 |
| 20260508112048 | 46 | 100 | 0.0 | 0.9 | 0.00 | 0.11 | 0.00 | 1 | 1016.7 |
| 20260508111551 | 46 | 94 | 0.0 | 0.9 | 0.00 | 0.11 | 0.00 | 1 | 1016.5 |
| 20260508111046 | 45 | 96 | 0.0 | 0.0 | 0.00 | 0.11 | 0.00 | 1 | 1016.5 |
| 20260508110544 | 45 | 96 | 0.0 | 0.0 | 0.00 | 0.11 | 0.00 | 1 | 1016.2 |
| 20260508110044 | 45 | 96 | 0.0 | 0.0 | 0.00 | 0.11 | 0.00 | 1 | 1016.3 |
| 20260508105544 | 45 | 96 | 0.0 | 0.0 | 0.00 | 0.11 | 0.00 | 1 | 1016.2 |
| 20260508105043 | 45 | 96 | 0.0 | 0.0 | 0.00 | 0.11 | 0.00 | 1 | 1016.1 |
| 20260508104544 | 45 | 96 | 0.0 | 0.0 | 0.00 | 0.11 | 0.00 | 1 | 1016.1 |
| 20260508104037 | 45 | 96 | 0.0 | 0.0 | 0.00 | 0.11 | 0.00 | 1 | 1016.0 |
| 20260508103536 | 45 | 96 | 0.0 | 0.9 | 0.00 | 0.11 | 0.00 | 1 | 1015.9 |
| 20260508103041 | 45 | 96 | 0.0 | 0.9 | 0.00 | 0.11 | 0.00 | 1 | 1015.8 |
| 20260508102534 | 46 | 105 | 0.0 | 0.9 | 0.00 | 0.11 | 0.00 | 1 | 1015.8 |
| 20260508102033 | 46 | 106 | 0.0 | 0.9 | 0.00 | 0.11 | 0.00 | 1 | 1015.7 |
| 20260508101538 | 46 | 101 | 0.0 | 0.9 | 0.00 | 0.11 | 0.00 | 1 | 1015.7 |
| 20260508101029 | 46 | 105 | 0.0 | 0.9 | 0.00 | 0.11 | 0.00 | 1 | 1015.6 |
| 20260508100527 | 46 | 110 | 0.0 | 0.9 | 0.00 | 0.11 | 0.00 | 1 | 1015.5 |
| 20260508100026 | 46 | 67 | 0.0 | 1.7 | 0.00 | 0.11 | 0.00 | 1 | 1015.5 |
| 20260508095524 | 46 | 82 | 0.0 | 1.7 | 0.00 | 0.14 | 0.00 | 1 | 1015.4 |
| 20260508095025 | 46 | 99 | 0.0 | 0.9 | 0.00 | 0.14 | 0.00 | 1 | 1015.4 |
| 20260508094539 | 46 | 84 | 0.0 | 1.7 | 0.00 | 0.14 | 0.00 | 1 | 1015.2 |
| 20260508094021 | 47 | 41 | 0.0 | 1.7 | 0.00 | 0.14 | 0.00 | 1 | 1015.2 |
| 20260508093518 | 47 | 101 | 0.0 | 0.0 | 0.00 | 0.14 | 0.00 | 1 | 1015.1 |
| 20260508093024 | 47 | 101 | 0.0 | 0.0 | 0.00 | 0.14 | 0.00 | 1 | 1015.1 |
| 20260508092519 | 47 | 101 | 0.0 | 0.0 | 0.00 | 0.14 | 0.00 | 1 | 1015.1 |
| 20260508092014 | 47 | 101 | 0.0 | 0.0 | 0.00 | 0.14 | 0.00 | 1 | 1015.1 |
| 20260508091531 | 47 | 101 | 0.0 | 0.0 | 0.00 | 0.14 | 0.00 | 1 | 1015.0 |
| 20260508091011 | 47 | 101 | 0.0 | 0.0 | 0.00 | 0.14 | 0.00 | 1 | 1015.0 |
| 20260508090510 | 47 | 101 | 0.0 | 0.0 | 0.00 | 0.14 | 0.00 | 1 | 1014.9 |
| 20260508090009 | 47 | 101 | 0.0 | 0.0 | 0.00 | 0.14 | 0.00 | 1 | 1014.9 |
| 20260508085510 | 47 | 101 | 0.0 | 0.9 | 0.00 | 0.16 | 0.00 | 1 | 1014.8 |
| 20260508085007 | 47 | 101 | 0.0 | 0.9 | 0.00 | 0.16 | 0.00 | 1 | 1014.9 |
| 20260508084504 | 47 | 104 | 0.0 | 0.9 | 0.00 | 0.16 | 0.00 | 1 | 1014.9 |
| 20260508084002 | 47 | 105 | 0.0 | 0.9 | 0.00 | 0.16 | 0.00 | 1 | 1014.8 |
| 20260508083602 | 47 | 89 | 0.0 | 0.9 | 0.00 | 0.16 | 0.00 | 1 | 1014.7 |
| 20260508083059 | 47 | 101 | 0.0 | 0.9 | 0.00 | 0.16 | 0.00 | 1 | 1014.6 |
| 20260508082559 | 47 | 106 | 0.0 | 0.9 | 0.00 | 0.16 | 0.00 | 1 | 1014.5 |
| 20260508082057 | 47 | 98 | 0.0 | 0.9 | 0.00 | 0.16 | 0.00 | 1 | 1014.5 |
| 20260508081608 | 47 | 104 | 0.0 | 0.9 | 0.00 | 0.16 | 0.00 | 1 | 1014.4 |
| 20260508081054 | 47 | 119 | 0.0 | 0.9 | 0.00 | 0.16 | 0.00 | 1 | 1014.2 |
| 20260508080552 | 48 | 100 | 0.0 | 0.9 | 0.00 | 0.16 | 0.00 | 1 | 1014.2 |
| 20260508080052 | 48 | 96 | 0.0 | 0.9 | 0.00 | 0.16 | 0.00 | 1 | 1014.2 |
| 20260508075549 | 48 | 97 | 0.0 | 0.9 | 0.00 | 0.16 | 0.00 | 1 | 1014.2 |
| 20260508075048 | 48 | 73 | 0.0 | 0.9 | 0.00 | 0.16 | 0.00 | 1 | 1014.2 |
| 20260508074548 | 48 | 101 | 0.0 | 0.0 | 0.00 | 0.16 | 0.00 | 1 | 1014.2 |
| 20260508074048 | 48 | 101 | 0.0 | 0.0 | 0.00 | 0.16 | 0.00 | 1 | 1014.1 |
| 20260508073543 | 48 | 101 | 0.0 | 0.0 | 0.00 | 0.16 | 0.00 | 1 | 1014.1 |
| 20260508073048 | 48 | 101 | 0.0 | 0.0 | 0.00 | 0.16 | 0.00 | 1 | 1014.1 |
| 20260508072540 | 48 | 101 | 0.0 | 0.0 | 0.00 | 0.16 | 0.00 | 1 | 1014.1 |
| 20260508072039 | 48 | 101 | 0.0 | 0.0 | 0.00 | 0.16 | 0.00 | 1 | 1014.1 |
| 20260508071551 | 48 | 101 | 0.0 | 0.0 | 0.00 | 0.16 | 0.00 | 1 | 1014.1 |
| 20260508071037 | 48 | 101 | 0.0 | 0.0 | 0.00 | 0.16 | 0.00 | 1 | 1014.1 |
| 20260508070537 | 48 | 101 | 0.0 | 0.0 | 0.00 | 0.16 | 0.00 | 1 | 1014.1 |
| 20260508070050 | 48 | 101 | 0.0 | 0.0 | 0.00 | 0.16 | 0.00 | 1 | 1014.1 |
| 20260508065536 | 48 | 101 | 0.0 | 0.9 | 0.00 | 0.16 | 0.00 | 1 | 1013.9 |
| 20260508065032 | 48 | 101 | 0.0 | 0.9 | 0.00 | 0.16 | 0.00 | 1 | 1014.0 |
| 20260508064536 | 48 | 106 | 0.0 | 0.9 | 0.00 | 0.16 | 0.00 | 1 | 1014.0 |
| 20260508064029 | 48 | 106 | 0.0 | 0.9 | 0.00 | 0.16 | 0.00 | 1 | 1013.9 |
| 20260508063528 | 48 | 115 | 0.0 | 0.9 | 0.00 | 0.16 | 0.00 | 1 | 1014.0 |
| 20260508063028 | 48 | 94 | 0.0 | 0.9 | 0.00 | 0.16 | 0.00 | 1 | 1013.7 |
| 20260508062525 | 48 | 115 | 0.0 | 0.9 | 0.00 | 0.16 | 0.00 | 1 | 1013.8 |
| 20260508062023 | 48 | 115 | 0.0 | 0.9 | 0.00 | 0.16 | 0.00 | 1 | 1013.7 |
| 20260508061523 | 48 | 78 | 0.0 | 0.9 | 0.00 | 0.16 | 0.00 | 1 | 1013.7 |
| 20260508061020 | 48 | 102 | 0.0 | 0.9 | 0.00 | 0.16 | 0.00 | 1 | 1013.6 |
| 20260508060520 | 48 | 101 | 0.0 | 0.9 | 0.00 | 0.16 | 0.00 | 1 | 1013.6 |
| 20260508060023 | 48 | 106 | 0.0 | 0.9 | 0.00 | 0.16 | 0.00 | 1 | 1013.5 |
| 20260508055515 | 48 | 113 | 0.0 | 0.9 | 0.00 | 0.16 | 0.00 | 1 | 1013.6 |
| 20260508055019 | 48 | 109 | 0.0 | 0.0 | 0.00 | 0.16 | 0.00 | 1 | 1013.5 |
| 20260508054517 | 48 | 109 | 0.0 | 0.0 | 0.00 | 0.16 | 0.00 | 1 | 1013.3 |
| 20260508054011 | 48 | 109 | 0.0 | 0.0 | 0.00 | 0.16 | 0.00 | 1 | 1013.3 |
| 20260508053510 | 48 | 109 | 0.0 | 0.0 | 0.00 | 0.16 | 0.00 | 1 | 1013.3 |
| 20260508053008 | 48 | 109 | 0.0 | 0.0 | 0.00 | 0.16 | 0.00 | 1 | 1013.3 |
| 20260508052509 | 48 | 109 | 0.0 | 0.0 | 0.00 | 0.16 | 0.00 | 1 | 1013.3 |
| 20260508052005 | 48 | 109 | 0.0 | 0.0 | 0.00 | 0.16 | 0.00 | 1 | 1013.5 |
| 20260508051504 | 48 | 109 | 0.0 | 0.0 | 0.00 | 0.16 | 0.00 | 1 | 1013.5 |
| 20260508051002 | 48 | 109 | 0.0 | 0.0 | 0.00 | 0.16 | 0.00 | 1 | 1013.4 |
| 20260508050501 | 48 | 109 | 0.0 | 0.0 | 0.00 | 0.16 | 0.00 | 1 | 1013.4 |
| 20260508045559 | 48 | 109 | 0.0 | 0.0 | 0.00 | 0.16 | 0.00 | 1 | 1013.4 |
| 20260508045058 | 48 | 109 | 0.0 | 0.9 | 0.00 | 0.16 | 0.00 | 1 | 1013.3 |
| 20260508044601 | 48 | 109 | 0.0 | 0.9 | 0.00 | 0.16 | 0.00 | 1 | 1013.2 |
| 20260508044055 | 48 | 109 | 0.0 | 0.9 | 0.00 | 0.16 | 0.00 | 1 | 1013.1 |
| 20260508043553 | 48 | 99 | 0.0 | 0.9 | 0.00 | 0.16 | 0.00 | 1 | 1013.1 |
| 20260508043052 | 48 | 97 | 0.0 | 0.9 | 0.00 | 0.16 | 0.00 | 1 | 1013.1 |
| 20260508042551 | 49 | 87 | 0.0 | 0.9 | 0.00 | 0.16 | 0.00 | 1 | 1013.0 |
| 20260508042049 | 49 | 106 | 0.0 | 0.9 | 0.00 | 0.16 | 0.00 | 1 | 1013.1 |
| 20260508041548 | 49 | 101 | 0.0 | 0.9 | 0.00 | 0.16 | 0.00 | 1 | 1013.1 |
| 20260508041048 | 49 | 112 | 0.0 | 0.9 | 0.00 | 0.16 | 0.00 | 1 | 1013.1 |
| 20260508040544 | 49 | 115 | 0.0 | 0.9 | 0.00 | 0.16 | 0.00 | 1 | 1013.0 |
| 20260508040044 | 49 | 181 | 0.0 | 0.0 | 0.00 | 0.16 | 0.00 | 1 | 1012.9 |
| 20260508035542 | 49 | 181 | 0.0 | 0.0 | 0.00 | 0.16 | 0.16 | 1 | 1012.9 |
| 20260508035041 | 49 | 181 | 0.0 | 0.0 | 0.00 | 0.16 | 0.16 | 1 | 1012.8 |
| 20260508034540 | 49 | 181 | 0.0 | 0.0 | 0.00 | 0.16 | 0.16 | 1 | 1012.9 |
| 20260508034037 | 49 | 181 | 0.0 | 0.0 | 0.00 | 0.16 | 0.16 | 1 | 1012.9 |
| 20260508033536 | 49 | 181 | 0.0 | 0.0 | 0.00 | 0.16 | 0.16 | 1 | 1012.8 |
| 20260508033045 | 49 | 181 | 0.0 | 0.0 | 0.00 | 0.16 | 0.16 | 1 | 1012.7 |
| 20260508032533 | 49 | 181 | 0.0 | 0.0 | 0.00 | 0.16 | 0.16 | 1 | 1012.9 |
| 20260508032031 | 49 | 181 | 0.0 | 0.0 | 0.00 | 0.16 | 0.16 | 1 | 1012.9 |
| 20260508031530 | 49 | 181 | 0.0 | 0.0 | 0.00 | 0.16 | 0.16 | 1 | 1012.9 |